Torna al catalogo

CENTISPACE-1 S4

AttivoNavigazioneLEO
NORAD 53758·PAYLOAD·🇨🇳 China

Lanciato Sep 6, 2022 da Jiuquan Satellite Launch Center

Loading…

Prossimi Passaggi (prossime 24 ore)

TLE

AggiornatoSource: Space-Track

Epoca: Sep 14, 2026, 13:06 UTC

1 53758U 22108B   26257.54595900  .00000322  00000-0  10137-3 0  9992
2 53758  53.5310  42.8182 0008435 200.2315 159.8327 14.62022761214637

Traccia CENTISPACE-1 S4 in tempo reale con AllMySat

Download on the App Store